Time,TemperatureF,DewpointF,PressureIn,WindDirection,WindDirectionDegrees,WindSpeedMPH,WindSpeedGustMPH,Humidity,HourlyPrecipIn,Conditions,Clouds,dailyrainin,SolarRadiationWatts/m^2,SoftwareType,DateUTC
2013-02-14 00:00:00,22.2,11.4,30.22,WSW,256,1.0,-999.0,70,-99.99,,,0.00,0.0,cwc,2013-02-14 07:00:00,
2013-02-14 00:05:00,22.1,11.7,30.22,WSW,256,1.0,-999.0,71,-99.99,,,0.00,0.0,cwc,2013-02-14 07:05:00,
2013-02-14 00:10:00,22.1,11.3,30.22,WSW,256,0.0,-999.0,70,-99.99,,,0.00,0.0,cwc,2013-02-14 07:10:00,
2013-02-14 00:15:00,21.9,11.5,30.22,WSW,256,2.0,-999.0,71,-99.99,,,0.00,0.0,cwc,2013-02-14 07:15:00,
2013-02-14 00:20:00,21.9,11.5,30.22,WSW,256,0.0,-999.0,71,-99.99,,,0.00,0.0,cwc,2013-02-14 07:20:00,
2013-02-14 00:25:00,21.9,11.5,30.22,WSW,256,1.0,-999.0,71,-99.99,,,0.00,0.0,cwc,2013-02-14 07:25:00,
2013-02-14 00:30:00,22.4,11.6,30.21,WSW,256,0.0,-999.0,70,-99.99,,,0.00,0.0,cwc,2013-02-14 07:30:00,
2013-02-14 00:35:00,22.5,11.3,30.22,WSW,256,1.0,-999.0,69,-99.99,,,0.00,0.0,cwc,2013-02-14 07:35:00,
2013-02-14 00:40:00,22.6,11.4,30.21,WSW,256,0.0,-999.0,69,-99.99,,,0.00,0.0,cwc,2013-02-14 07:40:00,
2013-02-14 00:45:00,22.4,11.2,30.21,WSW,256,3.0,-999.0,69,-99.99,,,0.00,0.0,cwc,2013-02-14 07:45:00,
2013-02-14 00:50:00,22.0,11.2,30.22,WSW,256,2.0,-999.0,70,-99.99,,,0.00,0.0,cwc,2013-02-14 07:50:00,
2013-02-14 00:55:00,21.6,10.8,30.22,WSW,256,3.0,-999.0,70,-99.99,,,0.00,0.0,cwc,2013-02-14 07:55:00,
2013-02-14 01:00:00,21.1,11.0,30.22,WSW,256,2.0,-999.0,72,-99.99,,,0.00,0.0,cwc,2013-02-14 08:00:00,
2013-02-14 01:05:00,21.0,10.9,30.21,WSW,256,3.0,-999.0,72,-99.99,,,0.00,0.0,cwc,2013-02-14 08:05:00,
2013-02-14 01:10:00,20.7,11.0,30.21,WSW,256,2.0,-999.0,73,-99.99,,,0.00,0.0,cwc,2013-02-14 08:10:00,
2013-02-14 01:15:00,20.5,10.8,30.21,WSW,256,0.0,-999.0,73,-99.99,,,0.00,0.0,cwc,2013-02-14 08:15:00,
2013-02-14 01:20:00,20.4,10.7,30.21,WSW,256,2.0,-999.0,73,-99.99,,,0.00,0.0,cwc,2013-02-14 08:20:00,
2013-02-14 01:25:00,20.2,10.8,30.21,WSW,256,0.0,-999.0,74,-99.99,,,0.00,0.0,cwc,2013-02-14 08:25:00,
2013-02-14 01:30:00,20.1,10.7,30.21,WSW,256,0.0,-999.0,74,-99.99,,,0.00,0.0,cwc,2013-02-14 08:30:00,
2013-02-14 01:35:00,19.9,10.5,30.21,WSW,256,1.0,-999.0,74,-99.99,,,0.00,0.0,cwc,2013-02-14 08:35:00,
2013-02-14 01:40:00,19.7,10.3,30.21,WSW,256,0.0,-999.0,74,-99.99,,,0.00,0.0,cwc,2013-02-14 08:40:00,
2013-02-14 01:45:00,19.7,10.3,30.21,WSW,256,2.0,-999.0,74,-99.99,,,0.00,0.0,cwc,2013-02-14 08:45:00,
2013-02-14 01:50:00,19.4,10.4,30.21,WSW,256,3.0,-999.0,75,-99.99,,,0.00,0.0,cwc,2013-02-14 08:50:00,
2013-02-14 01:55:00,19.3,10.7,30.21,WSW,256,4.0,-999.0,76,-99.99,,,0.00,0.0,cwc,2013-02-14 08:55:00,
2013-02-14 02:00:00,19.4,10.8,30.21,WSW,256,1.0,-999.0,76,-99.99,,,0.00,0.0,cwc,2013-02-14 09:00:00,
2013-02-14 02:05:00,19.7,10.7,30.21,WSW,256,2.0,-999.0,75,-99.99,,,0.00,0.0,cwc,2013-02-14 09:05:00,
2013-02-14 02:10:00,19.7,10.3,30.21,WSW,256,1.0,-999.0,74,-99.99,,,0.00,0.0,cwc,2013-02-14 09:10:00,
2013-02-14 02:15:00,19.7,10.3,30.22,WSW,256,0.0,-999.0,74,-99.99,,,0.00,0.0,cwc,2013-02-14 09:15:00,
2013-02-14 02:20:00,19.4,10.0,30.22,WSW,256,2.0,-999.0,74,-99.99,,,0.00,0.0,cwc,2013-02-14 09:20:00,
2013-02-14 02:25:00,19.1,10.5,30.21,WSW,256,2.0,-999.0,76,-99.99,,,0.00,0.0,cwc,2013-02-14 09:25:00,
2013-02-14 02:30:00,19.1,10.1,30.21,WSW,256,0.0,-999.0,75,-99.99,,,0.00,0.0,cwc,2013-02-14 09:30:00,
2013-02-14 02:35:00,19.0,10.0,30.21,WSW,256,2.0,-999.0,75,-99.99,,,0.00,0.0,cwc,2013-02-14 09:35:00,
2013-02-14 02:40:00,18.8,10.2,30.21,WSW,256,3.0,-999.0,76,-99.99,,,0.00,0.0,cwc,2013-02-14 09:40:00,
2013-02-14 02:45:00,18.8,10.5,30.21,WSW,256,3.0,-999.0,77,-99.99,,,0.00,0.0,cwc,2013-02-14 09:45:00,
2013-02-14 02:50:00,18.8,10.2,30.20,WSW,256,0.0,-999.0,76,-99.99,,,0.00,0.0,cwc,2013-02-14 09:50:00,
2013-02-14 02:55:00,18.7,10.1,30.20,WSW,256,0.0,-999.0,76,-99.99,,,0.00,0.0,cwc,2013-02-14 09:55:00,
2013-02-14 03:00:00,18.5,9.5,30.20,WSW,256,2.0,-999.0,75,-99.99,,,0.00,0.0,cwc,2013-02-14 10:00:00,
2013-02-14 03:10:00,17.9,9.6,30.20,WSW,256,0.0,-999.0,77,-99.99,,,0.00,0.0,cwc,2013-02-14 10:10:00,
2013-02-14 03:15:00,17.8,9.5,30.19,WSW,256,0.0,-999.0,77,-99.99,,,0.00,0.0,cwc,2013-02-14 10:15:00,
2013-02-14 03:20:00,17.5,9.6,30.19,WSW,256,2.0,-999.0,78,-99.99,,,0.00,0.0,cwc,2013-02-14 10:20:00,
2013-02-14 03:25:00,17.5,9.6,30.19,WSW,256,0.0,-999.0,78,-99.99,,,0.00,0.0,cwc,2013-02-14 10:25:00,
2013-02-14 03:30:00,17.4,9.5,30.19,WSW,256,0.0,-999.0,78,-99.99,,,0.00,0.0,cwc,2013-02-14 10:30:00,
2013-02-14 03:35:00,17.3,9.4,30.18,WSW,256,0.0,-999.0,78,-99.99,,,0.00,0.0,cwc,2013-02-14 10:35:00,
2013-02-14 03:40:00,17.2,9.3,30.19,WSW,256,3.0,-999.0,78,-99.99,,,0.00,0.0,cwc,2013-02-14 10:40:00,
2013-02-14 03:45:00,17.2,9.6,30.19,WSW,256,1.0,-999.0,79,-99.99,,,0.00,0.0,cwc,2013-02-14 10:45:00,
2013-02-14 03:50:00,17.3,9.7,30.19,WSW,256,0.0,-999.0,79,-99.99,,,0.00,0.0,cwc,2013-02-14 10:50:00,
2013-02-14 03:55:00,17.3,9.7,30.19,WSW,256,0.0,-999.0,79,-99.99,,,0.00,0.0,cwc,2013-02-14 10:55:00,
2013-02-14 04:00:00,17.0,9.4,30.19,WSW,256,3.0,-999.0,79,-99.99,,,0.00,0.0,cwc,2013-02-14 11:00:00,
2013-02-14 04:05:00,17.0,9.4,30.19,WSW,256,4.0,-999.0,79,-99.99,,,0.00,0.0,cwc,2013-02-14 11:05:00,
2013-02-14 04:10:00,16.8,9.2,30.19,WSW,256,3.0,-999.0,79,-99.99,,,0.00,0.0,cwc,2013-02-14 11:10:00,
2013-02-14 04:15:00,16.8,9.6,30.20,WSW,256,5.0,-999.0,80,-99.99,,,0.00,0.0,cwc,2013-02-14 11:15:00,
2013-02-14 04:20:00,16.9,9.7,30.20,WSW,256,4.0,-999.0,80,-99.99,,,0.00,0.0,cwc,2013-02-14 11:20:00,
2013-02-14 04:25:00,17.2,10.0,30.20,WSW,256,0.0,-999.0,80,-99.99,,,0.00,0.0,cwc,2013-02-14 11:25:00,
2013-02-14 04:30:00,17.4,10.2,30.20,WSW,256,0.0,-999.0,80,-99.99,,,0.00,0.0,cwc,2013-02-14 11:30:00,
2013-02-14 04:35:00,17.5,9.9,30.20,WSW,256,0.0,-999.0,79,-99.99,,,0.00,0.0,cwc,2013-02-14 11:35:00,
2013-02-14 04:40:00,17.3,9.4,30.21,WSW,256,2.0,-999.0,78,-99.99,,,0.00,0.0,cwc,2013-02-14 11:40:00,
2013-02-14 04:45:00,17.2,9.6,30.21,WSW,256,0.0,-999.0,79,-99.99,,,0.00,0.0,cwc,2013-02-14 11:45:00,
2013-02-14 04:50:00,17.0,9.1,30.21,WSW,256,2.0,-999.0,78,-99.99,,,0.00,0.0,cwc,2013-02-14 11:50:00,
2013-02-14 04:55:00,16.7,9.1,30.21,WSW,256,0.0,-999.0,79,-99.99,,,0.00,0.0,cwc,2013-02-14 11:55:00,
2013-02-14 05:00:00,16.5,9.3,30.20,WSW,256,0.0,-999.0,80,-99.99,,,0.00,0.0,cwc,2013-02-14 12:00:00,
2013-02-14 05:05:00,16.4,9.2,30.20,WSW,256,0.0,-999.0,80,-99.99,,,0.00,0.0,cwc,2013-02-14 12:05:00,
2013-02-14 05:10:00,16.2,8.6,30.21,WSW,256,2.0,-999.0,79,-99.99,,,0.00,0.0,cwc,2013-02-14 12:10:00,
2013-02-14 05:15:00,16.0,8.8,30.21,WSW,256,0.0,-999.0,80,-99.99,,,0.00,0.0,cwc,2013-02-14 12:15:00,
2013-02-14 05:20:00,15.8,8.6,30.20,WSW,256,0.0,-999.0,80,-99.99,,,0.00,0.0,cwc,2013-02-14 12:20:00,
2013-02-14 05:30:00,15.5,8.3,30.21,WSW,256,2.0,-999.0,80,-99.99,,,0.00,0.0,cwc,2013-02-14 12:30:00,
2013-02-14 05:35:00,15.2,8.4,30.21,WSW,256,0.0,-999.0,81,-99.99,,,0.00,0.0,cwc,2013-02-14 12:35:00,
2013-02-14 05:40:00,15.2,8.7,30.21,WSW,256,2.0,-999.0,82,-99.99,,,0.00,0.0,cwc,2013-02-14 12:40:00,
2013-02-14 05:45:00,15.3,8.8,30.21,WSW,256,2.0,-999.0,82,-99.99,,,0.00,0.0,cwc,2013-02-14 12:45:00,
2013-02-14 05:50:00,15.2,8.4,30.21,WSW,256,3.0,-999.0,81,-99.99,,,0.00,0.0,cwc,2013-02-14 12:50:00,
2013-02-14 05:55:00,15.1,8.6,30.21,WSW,256,4.0,-999.0,82,-99.99,,,0.00,0.0,cwc,2013-02-14 12:55:00,
2013-02-14 06:00:00,15.2,8.7,30.21,WSW,256,4.0,-999.0,82,-99.99,,,0.00,0.0,cwc,2013-02-14 13:00:00,
2013-02-14 06:05:00,15.3,8.8,30.22,WSW,256,0.0,-999.0,82,-99.99,,,0.00,0.0,cwc,2013-02-14 13:05:00,
2013-02-14 06:10:00,15.2,8.0,30.22,WSW,256,0.0,-999.0,80,-99.99,,,0.00,0.0,cwc,2013-02-14 13:10:00,
2013-02-14 06:15:00,15.0,8.2,30.22,WSW,256,0.0,-999.0,81,-99.99,,,0.00,0.0,cwc,2013-02-14 13:15:00,
2013-02-14 06:20:00,14.8,8.0,30.22,WSW,256,1.0,-999.0,81,-99.99,,,0.00,0.0,cwc,2013-02-14 13:20:00,
2013-02-14 06:25:00,14.7,8.2,30.22,WSW,256,2.0,-999.0,82,-99.99,,,0.00,0.0,cwc,2013-02-14 13:25:00,
2013-02-14 06:30:00,14.5,8.0,30.22,WSW,256,2.0,-999.0,82,-99.99,,,0.00,0.0,cwc,2013-02-14 13:30:00,
2013-02-14 06:35:00,14.3,7.8,30.22,WSW,256,2.0,-999.0,82,-99.99,,,0.00,0.0,cwc,2013-02-14 13:35:00,
2013-02-14 06:40:00,14.3,8.2,30.23,WSW,256,0.0,-999.0,83,-99.99,,,0.00,0.0,cwc,2013-02-14 13:40:00,
2013-02-14 06:45:00,14.2,7.7,30.23,WSW,256,2.0,-999.0,82,-99.99,,,0.00,0.0,cwc,2013-02-14 13:45:00,
2013-02-14 06:50:00,13.8,7.0,30.23,WSW,256,0.0,-999.0,81,-99.99,,,0.00,0.0,cwc,2013-02-14 13:50:00,
2013-02-14 06:55:00,13.5,6.7,30.23,WSW,256,0.0,-999.0,81,-99.99,,,0.00,5.0,cwc,2013-02-14 13:55:00,
2013-02-14 07:00:00,13.3,6.8,30.23,WSW,256,1.0,-999.0,82,-99.99,,,0.00,7.0,cwc,2013-02-14 14:00:00,
2013-02-14 07:05:00,13.2,6.7,30.24,WSW,256,0.0,-999.0,82,-99.99,,,0.00,9.0,cwc,2013-02-14 14:05:00,
2013-02-14 07:15:00,13.4,7.6,30.24,WSW,256,2.0,-999.0,84,-99.99,,,0.00,19.0,cwc,2013-02-14 14:15:00,
2013-02-14 07:20:00,13.9,8.5,30.23,WSW,256,4.0,-999.0,85,-99.99,,,0.00,28.0,cwc,2013-02-14 14:20:00,
2013-02-14 07:25:00,14.3,8.5,30.23,WSW,256,2.0,-999.0,84,-99.99,,,0.00,53.0,cwc,2013-02-14 14:25:00,
2013-02-14 07:30:00,14.5,8.7,30.24,WSW,256,0.0,-999.0,84,-99.99,,,0.00,74.0,cwc,2013-02-14 14:30:00,
2013-02-14 07:35:00,15.0,9.2,30.24,WSW,256,0.0,-999.0,84,-99.99,,,0.00,93.0,cwc,2013-02-14 14:35:00,
2013-02-14 07:40:00,15.7,9.9,30.24,WSW,256,0.0,-999.0,84,-99.99,,,0.00,113.0,cwc,2013-02-14 14:40:00,
2013-02-14 07:45:00,16.4,10.6,30.24,WSW,256,0.0,-999.0,84,-99.99,,,0.00,132.0,cwc,2013-02-14 14:45:00,
2013-02-14 07:50:00,17.1,10.6,30.24,WSW,256,0.0,-999.0,82,-99.99,,,0.00,149.0,cwc,2013-02-14 14:50:00,
2013-02-14 07:55:00,17.9,10.7,30.24,WSW,256,0.0,-999.0,80,-99.99,,,0.00,163.0,cwc,2013-02-14 14:55:00,
2013-02-14 08:00:00,18.7,11.1,30.25,WSW,256,0.0,-999.0,79,-99.99,,,0.00,193.0,cwc,2013-02-14 15:00:00,
2013-02-14 08:05:00,19.7,11.8,30.25,WSW,256,0.0,-999.0,78,-99.99,,,0.00,213.0,cwc,2013-02-14 15:05:00,
2013-02-14 08:10:00,20.4,11.8,30.25,WSW,256,0.0,-999.0,76,-99.99,,,0.00,234.0,cwc,2013-02-14 15:10:00,
2013-02-14 08:15:00,21.3,11.9,30.25,WSW,256,0.0,-999.0,74,-99.99,,,0.00,255.0,cwc,2013-02-14 15:15:00,
2013-02-14 08:20:00,22.3,12.2,30.25,WSW,256,0.0,-999.0,72,-99.99,,,0.00,274.0,cwc,2013-02-14 15:20:00,
2013-02-14 08:25:00,23.4,12.2,30.25,WSW,256,2.0,-999.0,69,-99.99,,,0.00,288.0,cwc,2013-02-14 15:25:00,
2013-02-14 08:30:00,24.3,11.3,30.25,WSW,256,1.0,-999.0,64,-99.99,,,0.00,295.0,cwc,2013-02-14 15:30:00,
2013-02-14 08:35:00,25.1,11.8,30.25,WSW,256,0.0,-999.0,63,-99.99,,,0.00,306.0,cwc,2013-02-14 15:35:00,
2013-02-14 08:40:00,26.0,12.3,30.25,WSW,256,2.0,-999.0,62,-99.99,,,0.00,323.0,cwc,2013-02-14 15:40:00,
2013-02-14 08:45:00,26.8,12.0,30.25,WSW,256,1.0,-999.0,59,-99.99,,,0.00,341.0,cwc,2013-02-14 15:45:00,
2013-02-14 08:50:00,27.0,11.9,30.25,WSW,256,1.0,-999.0,58,-99.99,,,0.00,359.0,cwc,2013-02-14 15:50:00,
2013-02-14 09:00:00,27.9,12.8,30.25,WSW,256,2.0,-999.0,58,-99.99,,,0.00,387.0,cwc,2013-02-14 16:00:00,
2013-02-14 09:05:00,28.1,12.3,30.25,WSW,257,0.0,-999.0,56,-99.99,,,0.00,403.0,cwc,2013-02-14 16:05:00,
2013-02-14 09:10:00,28.5,12.7,30.25,WSW,257,0.0,-999.0,56,-99.99,,,0.00,417.0,cwc,2013-02-14 16:10:00,
2013-02-14 09:15:00,29.3,13.1,30.24,WSW,257,3.0,-999.0,55,-99.99,,,0.00,434.0,cwc,2013-02-14 16:15:00,
2013-02-14 09:20:00,29.8,13.2,30.24,WSW,253,0.0,-999.0,54,-99.99,,,0.00,448.0,cwc,2013-02-14 16:20:00,
2013-02-14 09:25:00,30.3,13.7,30.24,WSW,254,0.0,-999.0,54,-99.99,,,0.00,462.0,cwc,2013-02-14 16:25:00,
2013-02-14 09:30:00,31.1,13.8,30.24,WSW,254,0.0,-999.0,52,-99.99,,,0.00,475.0,cwc,2013-02-14 16:30:00,
2013-02-14 09:40:00,31.8,14.2,30.23,WSW,254,0.0,-999.0,51,-99.99,,,0.00,504.0,cwc,2013-02-14 16:40:00,
2013-02-14 09:45:00,32.0,14.0,30.23,WSW,254,0.0,-999.0,50,-99.99,,,0.00,517.0,cwc,2013-02-14 16:45:00,
2013-02-14 09:50:00,32.6,14.2,30.23,WSW,254,0.0,-999.0,49,-99.99,,,0.00,529.0,cwc,2013-02-14 16:50:00,
2013-02-14 09:55:00,33.3,14.6,30.22,WSW,254,0.0,-999.0,48,-99.99,,,0.00,543.0,cwc,2013-02-14 16:55:00,
2013-02-14 10:00:00,33.9,14.8,30.22,WSW,254,2.0,-999.0,47,-99.99,,,0.00,555.0,cwc,2013-02-14 17:00:00,
2013-02-14 10:10:00,34.5,14.7,30.21,WSW,257,0.0,-999.0,45,-99.99,,,0.00,573.0,cwc,2013-02-14 17:10:00,
2013-02-14 10:15:00,35.0,15.2,30.21,WSW,256,1.0,-999.0,45,-99.99,,,0.00,584.0,cwc,2013-02-14 17:15:00,
2013-02-14 10:20:00,35.4,15.6,30.21,WSW,257,2.0,-999.0,45,-99.99,,,0.00,596.0,cwc,2013-02-14 17:20:00,
2013-02-14 10:25:00,36.0,16.2,30.21,WSW,257,3.0,-999.0,45,-99.99,,,0.00,606.0,cwc,2013-02-14 17:25:00,
2013-02-14 10:30:00,36.4,15.9,30.21,NW,305,4.0,-999.0,43,-99.99,,,0.00,615.0,cwc,2013-02-14 17:30:00,
2013-02-14 10:35:00,36.5,16.0,30.21,NW,306,2.0,-999.0,43,-99.99,,,0.00,626.0,cwc,2013-02-14 17:35:00,
2013-02-14 10:40:00,36.6,16.1,30.20,NW,306,0.0,-999.0,43,-99.99,,,0.00,633.0,cwc,2013-02-14 17:40:00,
2013-02-14 10:45:00,37.1,16.2,30.20,NW,306,0.0,-999.0,42,-99.99,,,0.00,640.0,cwc,2013-02-14 17:45:00,
2013-02-14 10:50:00,37.5,16.6,30.20,NW,306,2.0,-999.0,42,-99.99,,,0.00,649.0,cwc,2013-02-14 17:50:00,
2013-02-14 10:55:00,38.0,16.4,30.19,NW,306,2.0,-999.0,40,-99.99,,,0.00,659.0,cwc,2013-02-14 17:55:00,
2013-02-14 11:00:00,38.4,16.4,30.19,NW,306,1.0,-999.0,39,-99.99,,,0.00,666.0,cwc,2013-02-14 18:00:00,
2013-02-14 11:05:00,38.9,16.9,30.18,NW,306,1.0,-999.0,39,-99.99,,,0.00,671.0,cwc,2013-02-14 18:05:00,
2013-02-14 11:10:00,39.7,17.4,30.18,NW,305,0.0,-999.0,38,-99.99,,,0.00,680.0,cwc,2013-02-14 18:10:00,
2013-02-14 11:15:00,40.1,17.4,30.18,SSW,192,3.0,-999.0,37,-99.99,,,0.00,686.0,cwc,2013-02-14 18:15:00,
2013-02-14 11:20:00,40.1,17.8,30.18,South,189,3.0,-999.0,38,-99.99,,,0.00,689.0,cwc,2013-02-14 18:20:00,
2013-02-14 11:25:00,40.3,18.0,30.17,South,189,1.0,-999.0,38,-99.99,,,0.00,693.0,cwc,2013-02-14 18:25:00,
2013-02-14 11:30:00,40.7,18.0,30.17,South,188,0.0,-999.0,37,-99.99,,,0.00,698.0,cwc,2013-02-14 18:30:00,
2013-02-14 11:35:00,41.1,18.4,30.16,East,83,6.0,-999.0,37,-99.99,,,0.00,703.0,cwc,2013-02-14 18:35:00,
2013-02-14 11:40:00,41.2,18.2,30.16,ENE,57,4.0,-999.0,36,-99.99,,,0.00,707.0,cwc,2013-02-14 18:40:00,
2013-02-14 11:45:00,41.0,18.0,30.16,NNE,32,2.0,-999.0,36,-99.99,,,0.00,707.0,cwc,2013-02-14 18:45:00,
2013-02-14 11:50:00,41.0,18.0,30.16,NE,34,2.0,-999.0,36,-99.99,,,0.00,708.0,cwc,2013-02-14 18:50:00,
2013-02-14 11:55:00,41.6,18.9,30.15,NE,35,0.0,-999.0,37,-99.99,,,0.00,714.0,cwc,2013-02-14 18:55:00,
2013-02-14 12:00:00,42.4,19.4,30.15,NE,36,0.0,-999.0,36,-99.99,,,0.00,714.0,cwc,2013-02-14 19:00:00,
2013-02-14 12:10:00,42.8,19.4,30.14,NE,34,4.0,-999.0,35,-99.99,,,0.00,719.0,cwc,2013-02-14 19:10:00,
2013-02-14 12:15:00,42.6,19.2,30.14,NE,56,2.0,-999.0,35,-99.99,,,0.00,717.0,cwc,2013-02-14 19:15:00,
2013-02-14 12:25:00,43.3,19.9,30.14,NE,56,0.0,-999.0,35,-99.99,,,0.00,719.0,cwc,2013-02-14 19:25:00,
2013-02-14 12:30:00,43.8,20.0,30.14,NE,55,3.0,-999.0,34,-99.99,,,0.00,728.0,cwc,2013-02-14 19:30:00,
2013-02-14 12:35:00,43.8,20.4,30.13,NNE,22,0.0,-999.0,35,-99.99,,,0.00,654.0,cwc,2013-02-14 19:35:00,
2013-02-14 12:40:00,43.8,20.0,30.13,SE,129,1.0,-999.0,34,-99.99,,,0.00,731.0,cwc,2013-02-14 19:40:00,
2013-02-14 12:45:00,44.2,20.4,30.13,SE,130,0.0,-999.0,34,-99.99,,,0.00,737.0,cwc,2013-02-14 19:45:00,
2013-02-14 12:50:00,44.4,20.6,30.13,NNW,337,2.0,-999.0,34,-99.99,,,0.00,737.0,cwc,2013-02-14 19:50:00,
2013-02-14 12:55:00,45.0,21.2,30.12,SW,227,0.0,-999.0,34,-99.99,,,0.00,703.0,cwc,2013-02-14 19:55:00,
2013-02-14 13:00:00,45.5,21.4,30.12,West,269,4.0,-999.0,33,-99.99,,,0.00,701.0,cwc,2013-02-14 20:00:00,
2013-02-14 13:05:00,46.1,21.6,30.12,West,268,1.0,-999.0,32,-99.99,,,0.00,696.0,cwc,2013-02-14 20:05:00,
2013-02-14 13:10:00,46.3,21.8,30.12,NNE,28,3.0,-999.0,32,-99.99,,,0.00,694.0,cwc,2013-02-14 20:10:00,
2013-02-14 13:15:00,46.0,21.2,30.12,North,360,5.0,-999.0,31,-99.99,,,0.00,689.0,cwc,2013-02-14 20:15:00,
2013-02-14 13:20:00,45.2,21.1,30.11,SW,221,7.0,-999.0,33,-99.99,,,0.00,682.0,cwc,2013-02-14 20:20:00,
2013-02-14 13:25:00,45.3,20.8,30.11,SW,222,3.0,-999.0,32,-99.99,,,0.00,675.0,cwc,2013-02-14 20:25:00,
2013-02-14 13:30:00,45.7,21.2,30.11,WSW,240,2.0,-999.0,32,-99.99,,,0.00,670.0,cwc,2013-02-14 20:30:00,
2013-02-14 13:35:00,46.3,21.8,30.11,WNW,294,4.0,-999.0,32,-99.99,,,0.00,664.0,cwc,2013-02-14 20:35:00,
2013-02-14 13:40:00,46.5,21.7,30.11,NNW,329,0.0,-999.0,31,-99.99,,,0.00,656.0,cwc,2013-02-14 20:40:00,
2013-02-14 13:45:00,47.4,22.9,30.11,NNW,329,0.0,-999.0,32,-99.99,,,0.00,652.0,cwc,2013-02-14 20:45:00,
2013-02-14 13:50:00,48.2,23.0,30.10,SW,229,1.0,-999.0,30,-99.99,,,0.00,643.0,cwc,2013-02-14 20:50:00,
2013-02-14 13:55:00,48.2,23.0,30.10,SW,234,3.0,-999.0,30,-99.99,,,0.00,633.0,cwc,2013-02-14 20:55:00,
2013-02-14 14:00:00,48.1,22.9,30.10,West,263,3.0,-999.0,30,-99.99,,,0.00,624.0,cwc,2013-02-14 21:00:00,
2013-02-14 14:05:00,48.7,23.5,30.10,West,260,0.0,-999.0,30,-99.99,,,0.00,617.0,cwc,2013-02-14 21:05:00,
2013-02-14 14:10:00,49.4,23.8,30.10,NE,51,3.0,-999.0,29,-99.99,,,0.00,606.0,cwc,2013-02-14 21:10:00,
2013-02-14 14:15:00,49.2,22.9,30.10,WNW,287,4.0,-999.0,27,-99.99,,,0.00,599.0,cwc,2013-02-14 21:15:00,
2013-02-14 14:20:00,49.2,23.3,30.10,NNE,15,5.0,-999.0,28,-99.99,,,0.00,587.0,cwc,2013-02-14 21:20:00,
2013-02-14 14:25:00,49.0,23.1,30.10,NE,45,3.0,-999.0,28,-99.99,,,0.00,578.0,cwc,2013-02-14 21:25:00,
2013-02-14 14:30:00,48.6,23.0,30.10,ENE,64,11.0,-999.0,29,-99.99,,,0.00,585.0,cwc,2013-02-14 21:30:00,
2013-02-14 14:35:00,48.1,22.5,30.10,ENE,57,2.0,-999.0,29,-99.99,,,0.00,603.0,cwc,2013-02-14 21:35:00,
2013-02-14 14:40:00,47.9,22.7,30.10,NE,56,0.0,-999.0,30,-99.99,,,0.00,610.0,cwc,2013-02-14 21:40:00,
2013-02-14 14:45:00,48.3,22.4,30.10,NE,55,0.0,-999.0,28,-99.99,,,0.00,631.0,cwc,2013-02-14 21:45:00,
2013-02-14 14:50:00,48.6,22.7,30.10,NE,56,1.0,-999.0,28,-99.99,,,0.00,635.0,cwc,2013-02-14 21:50:00,
2013-02-14 14:55:00,48.3,22.0,30.11,NNE,22,7.0,-999.0,27,-99.99,,,0.00,120.0,cwc,2013-02-14 21:55:00,
2013-02-14 15:00:00,47.5,20.9,30.11,NE,41,4.0,-999.0,26,-99.99,,,0.00,113.0,cwc,2013-02-14 22:00:00,
2013-02-14 15:05:00,47.0,20.4,30.11,NE,38,3.0,-999.0,26,-99.99,,,0.00,536.0,cwc,2013-02-14 22:05:00,
2013-02-14 15:10:00,46.9,20.3,30.11,NE,38,0.0,-999.0,26,-99.99,,,0.00,77.0,cwc,2013-02-14 22:10:00,
2013-02-14 15:15:00,47.1,20.5,30.11,NE,37,3.0,-999.0,26,-99.99,,,0.00,454.0,cwc,2013-02-14 22:15:00,
2013-02-14 15:20:00,47.4,20.4,30.11,NE,42,4.0,-999.0,25,-99.99,,,0.00,462.0,cwc,2013-02-14 22:20:00,
2013-02-14 15:25:00,47.7,21.1,30.11,NE,55,9.0,-999.0,26,-99.99,,,0.00,464.0,cwc,2013-02-14 22:25:00,
2013-02-14 15:30:00,47.8,21.2,30.12,NNE,33,6.0,-999.0,26,-99.99,,,0.00,434.0,cwc,2013-02-14 22:30:00,
2013-02-14 15:35:00,47.6,21.0,30.12,NE,38,9.0,-999.0,26,-99.99,,,0.00,410.0,cwc,2013-02-14 22:35:00,
2013-02-14 15:40:00,47.6,21.0,30.12,NE,37,8.0,-999.0,26,-99.99,,,0.00,332.0,cwc,2013-02-14 22:40:00,
2013-02-14 15:45:00,47.6,21.0,30.13,NNE,19,5.0,-999.0,26,-99.99,,,0.00,367.0,cwc,2013-02-14 22:45:00,
2013-02-14 15:50:00,47.3,21.0,30.12,ENE,65,4.0,-999.0,27,-99.99,,,0.00,357.0,cwc,2013-02-14 22:50:00,
2013-02-14 15:55:00,47.3,20.7,30.13,NNE,30,10.0,-999.0,26,-99.99,,,0.00,350.0,cwc,2013-02-14 22:55:00,
2013-02-14 16:00:00,47.0,20.7,30.13,NE,42,4.0,-999.0,27,-99.99,,,0.00,294.0,cwc,2013-02-14 23:00:00,
2013-02-14 16:05:00,46.9,20.3,30.13,North,360,3.0,-999.0,26,-99.99,,,0.00,193.0,cwc,2013-02-14 23:05:00,
2013-02-14 16:10:00,46.8,20.2,30.13,NE,36,6.0,-999.0,26,-99.99,,,0.00,276.0,cwc,2013-02-14 23:10:00,
2013-02-14 16:15:00,46.8,20.2,30.13,North,360,7.0,-999.0,26,-99.99,,,0.00,243.0,cwc,2013-02-14 23:15:00,
2013-02-14 16:20:00,46.7,20.1,30.12,NE,34,4.0,-999.0,26,-99.99,,,0.00,229.0,cwc,2013-02-14 23:20:00,
2013-02-14 16:25:00,46.6,20.0,30.13,NE,36,6.0,-999.0,26,-99.99,,,0.00,209.0,cwc,2013-02-14 23:25:00,
2013-02-14 16:30:00,46.6,20.0,30.12,NE,41,6.0,-999.0,26,-99.99,,,0.00,193.0,cwc,2013-02-14 23:30:00,
2013-02-14 16:35:00,46.4,19.8,30.12,NE,34,3.0,-999.0,26,-99.99,,,0.00,51.0,cwc,2013-02-14 23:35:00,
2013-02-14 16:40:00,45.9,19.3,30.12,ENE,63,12.0,-999.0,26,-99.99,,,0.00,46.0,cwc,2013-02-14 23:40:00,
2013-02-14 16:45:00,45.6,19.0,30.12,NNE,33,11.0,-999.0,26,-99.99,,,0.00,40.0,cwc,2013-02-14 23:45:00,
2013-02-14 16:50:00,45.4,18.8,30.13,NE,48,4.0,-999.0,26,-99.99,,,0.00,32.0,cwc,2013-02-14 23:50:00,
2013-02-14 16:55:00,45.2,18.6,30.13,NNE,28,6.0,-999.0,26,-99.99,,,0.00,30.0,cwc,2013-02-14 23:55:00,
2013-02-14 17:00:00,45.0,18.7,30.13,NNE,31,8.0,-999.0,27,-99.99,,,0.00,26.0,cwc,2013-02-15 00:00:00,
2013-02-14 17:05:00,44.9,18.3,30.13,NNE,28,7.0,-999.0,26,-99.99,,,0.00,26.0,cwc,2013-02-15 00:05:00,
2013-02-14 17:10:00,44.8,18.2,30.14,NE,38,7.0,-999.0,26,-99.99,,,0.00,33.0,cwc,2013-02-15 00:10:00,
2013-02-14 17:15:00,44.7,18.1,30.14,NNE,28,4.0,-999.0,26,-99.99,,,0.00,26.0,cwc,2013-02-15 00:15:00,
2013-02-14 17:20:00,44.5,17.9,30.14,NNE,28,4.0,-999.0,26,-99.99,,,0.00,28.0,cwc,2013-02-15 00:20:00,
2013-02-14 17:25:00,44.4,18.1,30.14,NNE,23,3.0,-999.0,27,-99.99,,,0.00,21.0,cwc,2013-02-15 00:25:00,
2013-02-14 17:30:00,44.2,17.9,30.14,NNE,18,2.0,-999.0,27,-99.99,,,0.00,14.0,cwc,2013-02-15 00:30:00,
2013-02-14 17:35:00,44.0,17.7,30.15,NNE,19,5.0,-999.0,27,-99.99,,,0.00,9.0,cwc,2013-02-15 00:35:00,
2013-02-14 17:40:00,43.8,17.5,30.15,NNE,28,3.0,-999.0,27,-99.99,,,0.00,5.0,cwc,2013-02-15 00:40:00,
2013-02-14 17:45:00,43.6,17.7,30.15,NNE,28,2.0,-999.0,28,-99.99,,,0.00,0.0,cwc,2013-02-15 00:45:00,
2013-02-14 17:50:00,43.3,17.4,30.15,NNE,28,2.0,-999.0,28,-99.99,,,0.00,0.0,cwc,2013-02-15 00:50:00,
2013-02-14 17:55:00,43.1,17.2,30.15,NNE,28,0.0,-999.0,28,-99.99,,,0.00,0.0,cwc,2013-02-15 00:55:00,
2013-02-14 18:00:00,42.8,16.9,30.16,NNE,28,1.0,-999.0,28,-99.99,,,0.00,0.0,cwc,2013-02-15 01:00:00,
2013-02-14 18:05:00,42.5,16.9,30.16,NNE,28,0.0,-999.0,29,-99.99,,,0.00,0.0,cwc,2013-02-15 01:05:00,
2013-02-14 18:10:00,42.2,16.6,30.16,NNE,28,0.0,-999.0,29,-99.99,,,0.00,0.0,cwc,2013-02-15 01:10:00,
2013-02-14 18:15:00,41.9,16.3,30.17,NNE,28,1.0,-999.0,29,-99.99,,,0.00,0.0,cwc,2013-02-15 01:15:00,
2013-02-14 18:20:00,41.5,16.3,30.17,NNE,28,0.0,-999.0,30,-99.99,,,0.00,0.0,cwc,2013-02-15 01:20:00,
2013-02-14 18:25:00,41.1,15.9,30.17,NNE,28,0.0,-999.0,30,-99.99,,,0.00,0.0,cwc,2013-02-15 01:25:00,
2013-02-14 18:30:00,40.8,16.0,30.17,NNE,28,2.0,-999.0,31,-99.99,,,0.00,0.0,cwc,2013-02-15 01:30:00,
2013-02-14 18:40:00,40.5,16.0,30.18,NNE,28,4.0,-999.0,32,-99.99,,,0.00,0.0,cwc,2013-02-15 01:40:00,
2013-02-14 18:45:00,39.0,14.9,30.18,NNE,28,3.0,-999.0,33,-99.99,,,0.00,0.0,cwc,2013-02-15 01:45:00,
2013-02-14 18:50:00,37.4,13.6,30.18,WSW,248,5.0,-999.0,34,-99.99,,,0.00,0.0,cwc,2013-02-15 01:50:00,
2013-02-14 18:55:00,36.3,13.3,30.18,WSW,248,4.0,-999.0,36,-99.99,,,0.00,0.0,cwc,2013-02-15 01:55:00,
2013-02-14 19:00:00,35.8,13.1,30.18,WSW,248,1.0,-999.0,37,-99.99,,,0.00,0.0,cwc,2013-02-15 02:00:00,
2013-02-14 19:05:00,35.3,12.6,30.19,WSW,248,2.0,-999.0,37,-99.99,,,0.00,0.0,cwc,2013-02-15 02:05:00,
2013-02-14 19:10:00,34.6,12.6,30.19,WSW,248,6.0,-999.0,39,-99.99,,,0.00,0.0,cwc,2013-02-15 02:10:00,
2013-02-14 19:15:00,33.8,12.2,30.19,WSW,248,4.0,-999.0,40,-99.99,,,0.00,0.0,cwc,2013-02-15 02:15:00,
2013-02-14 19:20:00,33.2,12.0,30.19,WSW,248,3.0,-999.0,41,-99.99,,,0.00,0.0,cwc,2013-02-15 02:20:00,
2013-02-14 19:25:00,33.3,11.7,30.19,WSW,248,2.0,-999.0,40,-99.99,,,0.00,0.0,cwc,2013-02-15 02:25:00,
2013-02-14 19:30:00,33.2,12.0,30.19,WSW,248,1.0,-999.0,41,-99.99,,,0.00,0.0,cwc,2013-02-15 02:30:00,
2013-02-14 19:35:00,32.7,11.5,30.19,WSW,248,3.0,-999.0,41,-99.99,,,0.00,0.0,cwc,2013-02-15 02:35:00,
2013-02-14 19:40:00,32.4,11.5,30.20,WSW,248,3.0,-999.0,42,-99.99,,,0.00,0.0,cwc,2013-02-15 02:40:00,
2013-02-14 19:45:00,32.1,11.2,30.20,WSW,248,1.0,-999.0,42,-99.99,,,0.00,0.0,cwc,2013-02-15 02:45:00,
2013-02-14 19:50:00,31.7,10.8,30.21,WSW,248,0.0,-999.0,42,-99.99,,,0.00,0.0,cwc,2013-02-15 02:50:00,
2013-02-14 19:55:00,31.5,11.0,30.21,WSW,248,2.0,-999.0,43,-99.99,,,0.00,0.0,cwc,2013-02-15 02:55:00,
2013-02-14 20:00:00,31.4,10.9,30.21,WSW,248,0.0,-999.0,43,-99.99,,,0.00,0.0,cwc,2013-02-15 03:00:00,
2013-02-14 20:10:00,30.5,10.7,30.22,WSW,248,3.0,-999.0,45,-99.99,,,0.00,0.0,cwc,2013-02-15 03:10:00,
2013-02-14 20:15:00,30.3,10.5,30.22,WSW,248,3.0,-999.0,45,-99.99,,,0.00,0.0,cwc,2013-02-15 03:15:00,
2013-02-14 20:20:00,30.3,10.5,30.23,WSW,248,1.0,-999.0,45,-99.99,,,0.00,0.0,cwc,2013-02-15 03:20:00,
2013-02-14 20:25:00,30.1,10.3,30.22,WSW,248,4.0,-999.0,45,-99.99,,,0.00,0.0,cwc,2013-02-15 03:25:00,
2013-02-14 20:30:00,30.5,10.7,30.23,WSW,248,3.0,-999.0,45,-99.99,,,0.00,0.0,cwc,2013-02-15 03:30:00,
2013-02-14 20:35:00,30.3,10.5,30.23,WSW,248,0.0,-999.0,45,-99.99,,,0.00,0.0,cwc,2013-02-15 03:35:00,
2013-02-14 20:40:00,30.1,10.7,30.23,WSW,248,3.0,-999.0,46,-99.99,,,0.00,0.0,cwc,2013-02-15 03:40:00,
2013-02-14 20:45:00,29.7,10.6,30.23,WSW,248,0.0,-999.0,47,-99.99,,,0.00,0.0,cwc,2013-02-15 03:45:00,
2013-02-14 20:50:00,29.4,10.0,30.24,WSW,248,0.0,-999.0,46,-99.99,,,0.00,0.0,cwc,2013-02-15 03:50:00,
2013-02-14 20:55:00,29.1,10.0,30.24,WSW,248,3.0,-999.0,47,-99.99,,,0.00,0.0,cwc,2013-02-15 03:55:00,
2013-02-14 21:00:00,28.6,9.9,30.25,WSW,248,3.0,-999.0,48,-99.99,,,0.00,0.0,cwc,2013-02-15 04:00:00,
2013-02-14 21:10:00,28.4,9.7,30.25,WSW,248,2.0,-999.0,48,-99.99,,,0.00,0.0,cwc,2013-02-15 04:10:00,
2013-02-14 21:15:00,28.0,9.6,30.26,WSW,248,3.0,-999.0,49,-99.99,,,0.00,0.0,cwc,2013-02-15 04:15:00,
2013-02-14 21:20:00,27.7,9.7,30.26,WSW,248,0.0,-999.0,50,-99.99,,,0.00,0.0,cwc,2013-02-15 04:20:00,
2013-02-14 21:25:00,27.5,9.5,30.26,WSW,248,0.0,-999.0,50,-99.99,,,0.00,0.0,cwc,2013-02-15 04:25:00,
2013-02-14 21:30:00,27.3,9.3,30.27,WSW,248,0.0,-999.0,50,-99.99,,,0.00,0.0,cwc,2013-02-15 04:30:00,
2013-02-14 21:35:00,27.0,9.4,30.27,WSW,248,1.0,-999.0,51,-99.99,,,0.00,0.0,cwc,2013-02-15 04:35:00,
2013-02-14 21:40:00,26.5,9.2,30.27,WSW,248,3.0,-999.0,52,-99.99,,,0.00,0.0,cwc,2013-02-15 04:40:00,
2013-02-14 21:45:00,26.1,9.2,30.27,WSW,248,2.0,-999.0,53,-99.99,,,0.00,0.0,cwc,2013-02-15 04:45:00,
2013-02-14 21:50:00,25.8,8.9,30.27,WSW,248,2.0,-999.0,53,-99.99,,,0.00,0.0,cwc,2013-02-15 04:50:00,
2013-02-14 21:55:00,25.9,9.0,30.28,WSW,248,3.0,-999.0,53,-99.99,,,0.00,0.0,cwc,2013-02-15 04:55:00,
2013-02-14 22:00:00,26.0,9.1,30.28,WSW,248,3.0,-999.0,53,-99.99,,,0.00,0.0,cwc,2013-02-15 05:00:00,
2013-02-14 22:05:00,26.0,9.1,30.28,WSW,248,4.0,-999.0,53,-99.99,,,0.00,0.0,cwc,2013-02-15 05:05:00,
2013-02-14 22:10:00,25.6,9.0,30.28,WSW,248,0.0,-999.0,54,-99.99,,,0.00,0.0,cwc,2013-02-15 05:10:00,
2013-02-14 22:15:00,25.4,8.8,30.28,WSW,248,3.0,-999.0,54,-99.99,,,0.00,0.0,cwc,2013-02-15 05:15:00,
2013-02-14 22:20:00,25.2,8.6,30.28,WSW,248,2.0,-999.0,54,-99.99,,,0.00,0.0,cwc,2013-02-15 05:20:00,
2013-02-14 22:25:00,24.9,8.7,30.28,WSW,248,2.0,-999.0,55,-99.99,,,0.00,0.0,cwc,2013-02-15 05:25:00,
2013-02-14 22:30:00,24.8,8.6,30.29,WSW,248,2.0,-999.0,55,-99.99,,,0.00,0.0,cwc,2013-02-15 05:30:00,
2013-02-14 22:35:00,24.4,8.6,30.29,WSW,248,2.0,-999.0,56,-99.99,,,0.00,0.0,cwc,2013-02-15 05:35:00,
2013-02-14 22:40:00,24.3,8.5,30.29,WSW,248,3.0,-999.0,56,-99.99,,,0.00,0.0,cwc,2013-02-15 05:40:00,
2013-02-14 22:45:00,24.2,8.7,30.29,WSW,248,4.0,-999.0,57,-99.99,,,0.00,0.0,cwc,2013-02-15 05:45:00,
2013-02-14 22:55:00,24.1,8.6,30.29,WSW,248,0.0,-999.0,57,-99.99,,,0.00,0.0,cwc,2013-02-15 05:55:00,
2013-02-14 23:00:00,24.0,8.9,30.30,WSW,248,0.0,-999.0,58,-99.99,,,0.00,0.0,cwc,2013-02-15 06:00:00,
2013-02-14 23:05:00,23.7,8.9,30.30,WSW,248,2.0,-999.0,59,-99.99,,,0.00,0.0,cwc,2013-02-15 06:05:00,
2013-02-14 23:10:00,23.5,8.7,30.30,WSW,248,0.0,-999.0,59,-99.99,,,0.00,0.0,cwc,2013-02-15 06:10:00,
2013-02-14 23:15:00,23.6,8.8,30.31,WSW,248,2.0,-999.0,59,-99.99,,,0.00,0.0,cwc,2013-02-15 06:15:00,
2013-02-14 23:20:00,23.9,8.8,30.31,WSW,248,1.0,-999.0,58,-99.99,,,0.00,0.0,cwc,2013-02-15 06:20:00,
2013-02-14 23:25:00,24.4,9.6,30.30,WSW,248,1.0,-999.0,59,-99.99,,,0.00,0.0,cwc,2013-02-15 06:25:00,
2013-02-14 23:35:00,24.6,9.8,30.30,WSW,248,3.0,-999.0,59,-99.99,,,0.00,0.0,cwc,2013-02-15 06:35:00,
2013-02-14 23:40:00,24.9,9.8,30.30,WSW,248,3.0,-999.0,58,-99.99,,,0.00,0.0,cwc,2013-02-15 06:40:00,
2013-02-14 23:45:00,24.9,10.1,30.30,WSW,248,3.0,-999.0,59,-99.99,,,0.00,0.0,cwc,2013-02-15 06:45:00,
2013-02-14 23:50:00,24.9,10.1,30.30,WSW,248,4.0,-999.0,59,-99.99,,,0.00,0.0,cwc,2013-02-15 06:50:00,
2013-02-14 23:55:00,25.1,10.0,30.30,WSW,248,0.0,-999.0,58,-99.99,,,0.00,0.0,cwc,2013-02-15 06:55:00,